Jacksonville, TX

12:15 AM CDT on May 22, 2018 (GMT -0500)
Cherokee County

Weather History for KJSO - June, 2013

Change the Weather History Date:

Saturday, June 29, 2013

  Actual Average (KOCH) Record (KOCH)
Temperature  
Mean Temperature 86 °F -  
Max Temperature 95 °F 88 °F 100 °F (2013)
Min Temperature 78 °F 69 °F 59 °F (2017)
Cooling Degree Days 22    
Growing Degree Days 36 (Base 50)    
Moisture  
Dew Point 60 °F    
Average Humidity 43    
Maximum Humidity 60    
Minimum Humidity 23    
Precipitation  
Precipitation 0.00 in - - ()
Sea Level Pressure  
Sea Level Pressure 29.85 in    
Wind  
Wind Speed 3 mph (North)    
Max Wind Speed 12 mph    
Max Gust Speed 20 mph    
Visibility 10 miles    
Events      
Averages and records for this station are not official NWS values.
T = Trace of Precipitation, MM = Missing Value Source: NWS Daily Summary

Daily Weather History Graph

Daily Weather History Graph

Search for Another Location

Airport or City:

Astronomy

Jun. 29, 2013 Rise Set
Actual Time 6:18 AM CDT 8:30 PM CDT
Civil Twilight 5:49 AM CDT 8:58 PM CDT
Nautical Twilight 5:15 AM CDT 9:33 PM CDT
Astronomical Twilight 4:38 AM CDT 10:10 PM CDT
Moon 12:25 AM CDT (6/29) 1:03 PM CDT (6/29)
Length of Visible Light 15h 08m
Length of Day
14h 12m
Waning Gibbous, 55% of the Moon is Illuminated
Jun 29
Waning Gibbous
Jun 29
Last Quarter
Jul 8
New
Jul 15
First Quarter
Jul 22
Full

Hourly Weather History & Observations

Time (CDT) Temp. Heat Index Dew Point Humidity Pressure Visibility Wind Dir Wind Speed Gust Speed Precip Events Conditions
12:15 AM 84.2 °F 86.3 °F 65.7 °F 54% 29.86 in 10.0 mi Calm Calm - N/A   Clear
12:35 AM 84.0 °F 86.0 °F 65.5 °F 54% 29.86 in 10.0 mi Calm Calm - N/A   Clear
12:55 AM 83.3 °F 85.3 °F 65.7 °F 55% 29.86 in 10.0 mi Calm Calm - N/A   Clear
1:15 AM 82.8 °F 84.7 °F 65.7 °F 56% 29.87 in 10.0 mi NNE 3.5 mph - N/A   Clear
1:35 AM 82.6 °F 84.5 °F 65.3 °F 56% 29.87 in 10.0 mi NNE 3.5 mph - N/A   Clear
1:55 AM 81.7 °F 83.6 °F 65.5 °F 58% 29.87 in 10.0 mi Calm Calm - N/A   Clear
2:15 AM 80.8 °F 82.8 °F 65.7 °F 60% 29.87 in 10.0 mi Calm Calm - N/A   Clear
2:35 AM 80.6 °F 82.4 °F 65.3 °F 59% 29.87 in 10.0 mi NE 3.5 mph - N/A   Clear
2:55 AM 80.6 °F 82.3 °F 64.6 °F 58% 29.86 in 10.0 mi Calm Calm - N/A   Clear
3:15 AM 80.4 °F 82.1 °F 64.4 °F 58% 29.86 in 10.0 mi North 3.5 mph - N/A   Clear
3:35 AM 79.7 °F - 64.0 °F 59% 29.86 in 10.0 mi Calm Calm - N/A   Clear
3:55 AM 79.5 °F - 63.5 °F 58% 29.86 in 10.0 mi North 3.5 mph - N/A   Clear
4:15 AM 79.3 °F - 62.6 °F 56% 29.86 in 10.0 mi Calm Calm - N/A   Clear
4:35 AM 79.7 °F - 62.1 °F 55% 29.86 in 10.0 mi Calm Calm - N/A   Clear
4:55 AM 79.2 °F - 61.7 °F 55% 29.86 in 10.0 mi North 3.5 mph - N/A   Clear
5:15 AM 78.8 °F - 61.7 °F 56% 29.86 in 10.0 mi Calm Calm - N/A   Clear
5:35 AM 78.8 °F - 61.3 °F 55% 29.87 in 10.0 mi Calm Calm - N/A   Clear
5:55 AM 78.8 °F - 61.3 °F 55% 29.87 in 10.0 mi Calm Calm - N/A   Clear
6:15 AM 78.3 °F - 61.5 °F 56% 29.87 in 10.0 mi North 3.5 mph - N/A   Clear
6:35 AM 78.3 °F - 61.7 °F 57% 29.87 in 10.0 mi NNW 3.5 mph - N/A   Clear
6:55 AM 78.3 °F - 61.9 °F 57% 29.87 in 10.0 mi NNW 3.5 mph - N/A   Clear
7:15 AM 78.8 °F - 62.1 °F 56% 29.87 in 10.0 mi Calm Calm - N/A   Clear
7:35 AM 79.9 °F - 62.4 °F 55% 29.87 in 10.0 mi NNW 4.6 mph - N/A   Clear
7:55 AM 80.8 °F 82.0 °F 63.0 °F 54% 29.87 in 10.0 mi NNW 4.6 mph - N/A   Clear
8:15 AM 81.3 °F 82.7 °F 63.5 °F 55% 29.88 in 10.0 mi NNW 4.6 mph - N/A   Clear
8:35 AM 82.0 °F 83.3 °F 63.5 °F 53% 29.88 in 10.0 mi NNW 3.5 mph - N/A   Clear
8:55 AM 83.1 °F 84.6 °F 64.6 °F 53% 29.88 in 10.0 mi NNW 4.6 mph - N/A   Clear
9:15 AM 83.8 °F 86.3 °F 66.6 °F 56% 29.88 in 10.0 mi NNE 4.6 mph - N/A   Clear
9:35 AM 85.1 °F 86.6 °F 64.4 °F 50% 29.88 in 10.0 mi NNE 6.9 mph - N/A   Clear
9:55 AM 86.0 °F 87.6 °F 64.8 °F 49% 29.88 in 10.0 mi North 4.6 mph - N/A   Clear
10:15 AM 87.4 °F 88.5 °F 63.9 °F 45% 29.88 in 10.0 mi NNW 4.6 mph - N/A   Clear
10:35 AM 89.1 °F 90.0 °F 63.3 °F 42% 29.88 in 10.0 mi NNE 4.6 mph - N/A   Clear
10:55 AM 89.6 °F 90.4 °F 63.3 °F 41% 29.88 in 10.0 mi North 5.8 mph - N/A   Clear
11:15 AM 90.7 °F 91.7 °F 63.1 °F 40% 29.88 in 10.0 mi North 6.9 mph - N/A   Clear
11:35 AM 91.4 °F 92.1 °F 62.6 °F 38% 29.88 in 10.0 mi NNW 6.9 mph - N/A   Clear
11:55 AM 92.3 °F 92.7 °F 62.1 °F 36% 29.88 in 10.0 mi NNW 10.4 mph 17.3 mph N/A   Clear
12:15 PM 93.2 °F 94.1 °F 62.4 °F 36% 29.88 in 10.0 mi NW 8.1 mph - N/A   Clear
12:35 PM 93.6 °F 93.4 °F 60.6 °F 33% 29.88 in 10.0 mi NW 9.2 mph 19.6 mph N/A   Clear
12:55 PM 93.7 °F 93.7 °F 60.6 °F 33% 29.87 in 10.0 mi NW 11.5 mph 17.3 mph N/A   Clear
1:15 PM 93.2 °F 93.3 °F 61.3 °F 34% 29.87 in 10.0 mi NNW 8.1 mph 17.3 mph N/A   Clear
1:35 PM 94.1 °F 94.6 °F 61.3 °F 34% 29.87 in 10.0 mi NNE 10.4 mph 16.1 mph N/A   Clear
1:55 PM 93.7 °F 94.1 °F 61.3 °F 34% 29.86 in 10.0 mi NNW 8.1 mph 18.4 mph N/A   Clear
2:15 PM 94.1 °F 93.9 °F 60.1 °F 32% 29.86 in 10.0 mi North 10.4 mph - N/A   Clear
2:35 PM 94.1 °F 92.5 °F 56.7 °F 28% 29.86 in 10.0 mi NNW 8.1 mph - N/A   Clear
2:55 PM 94.6 °F 93.5 °F 57.6 °F 29% 29.85 in 10.0 mi North 10.4 mph - N/A   Clear
3:15 PM 94.3 °F 93.0 °F 57.4 °F 29% 29.84 in 10.0 mi North 6.9 mph - N/A   Clear
3:35 PM 94.5 °F 93.0 °F 56.8 °F 28% 29.83 in 10.0 mi North 9.2 mph - N/A   Clear
3:55 PM 94.6 °F 92.9 °F 55.6 °F 27% 29.83 in 10.0 mi NNW 8.1 mph 17.3 mph N/A   Clear
4:15 PM 95.5 °F 93.1 °F 53.4 °F 24% 29.83 in 10.0 mi NNW 8.1 mph 18.4 mph N/A   Clear
4:35 PM 93.7 °F 91.4 °F 53.8 °F 26% 29.83 in 10.0 mi North 8.1 mph 17.3 mph N/A   Clear
4:55 PM 94.1 °F 91.9 °F 53.8 °F 26% 29.82 in 10.0 mi NNW 10.4 mph 16.1 mph N/A   Clear
5:15 PM 94.1 °F - 51.6 °F 24% 29.82 in 10.0 mi NNW 9.2 mph 17.3 mph N/A   Clear
5:35 PM 93.9 °F - 51.1 °F 23% 29.81 in 10.0 mi NNW 10.4 mph - N/A   Clear
5:55 PM 93.2 °F 90.8 °F 53.4 °F 26% 29.81 in 10.0 mi NNW 8.1 mph - N/A   Clear
6:15 PM 93.0 °F 90.8 °F 54.5 °F 27% 29.81 in 10.0 mi North 9.2 mph - N/A   Clear
6:35 PM 92.3 °F 90.2 °F 54.5 °F 28% 29.81 in 10.0 mi North 6.9 mph - N/A   Clear
6:55 PM 91.4 °F 89.1 °F 53.8 °F 28% 29.81 in 10.0 mi North 5.8 mph - N/A   Clear
7:15 PM 90.7 °F 88.7 °F 54.9 °F 30% 29.81 in 10.0 mi North 4.6 mph - N/A   Clear
7:35 PM 89.8 °F 87.7 °F 54.9 °F 30% 29.81 in 10.0 mi North 3.5 mph - N/A   Clear
7:55 PM 88.7 °F 86.9 °F 55.0 °F 32% 29.81 in 10.0 mi North 3.5 mph - N/A   Clear
8:15 PM 87.4 °F 85.7 °F 55.2 °F 33% 29.81 in 10.0 mi North 3.5 mph - N/A   Clear
8:35 PM 86.0 °F 84.5 °F 55.6 °F 35% 29.81 in 10.0 mi North 3.5 mph - N/A   Clear
8:55 PM 85.1 °F 83.9 °F 56.1 °F 37% 29.82 in 10.0 mi Calm Calm - N/A   Clear
9:15 PM 84.4 °F 83.4 °F 56.5 °F 38% 29.82 in 10.0 mi Calm Calm - N/A   Clear
9:35 PM 83.7 °F 83.0 °F 57.2 °F 40% 29.83 in 10.0 mi Calm Calm - N/A   Clear
9:55 PM 83.1 °F 82.6 °F 57.2 °F 41% 29.83 in 10.0 mi Calm Calm - N/A   Clear
10:15 PM 81.5 °F 81.4 °F 57.0 °F 43% 29.84 in 10.0 mi Calm Calm - N/A   Clear
10:35 PM 81.0 °F 80.9 °F 56.5 °F 43% 29.85 in 10.0 mi North 4.6 mph - N/A   Clear
10:55 PM 80.8 °F 80.8 °F 56.3 °F 43% 29.85 in 10.0 mi North 4.6 mph - N/A   Clear
11:15 PM 79.9 °F - 56.3 °F 44% 29.86 in 10.0 mi North 3.5 mph - N/A   Clear
11:35 PM 79.9 °F - 56.1 °F 44% 29.86 in 10.0 mi North 3.5 mph - N/A   Clear
11:55 PM 79.0 °F - 56.3 °F 46% 29.86 in 10.0 mi North 3.5 mph - N/A   Clear